Погода в Львове

Погода в Львове : погода сейчас, прогноз погоды и архив. Всё, что Вы хотите узнать о погоде в Львове!

Поиск расширенной информации на нашем сайте:

Другие новости

Новости СМИ2

Главная страница сайта

Новости сайта

03.07.2017

Напоминаем, что на нашем специализированном сайте Метеоцентр.Азия вы можете получить высокодетализированные автоматические прогнозы погоды по пунктам России, СНГ и мира в авиационном формате (включающие направление и скорость ветра, видимость, явления погоды, количество и форму облачности, нижнюю и верхнюю границу облачности).


Погода в Львове - сегодня

Время (UTC), дата Ветер
(°,м/с) 
Видим.   Явления Облачность Т
(°С)
Тd
(°С)
f(%) Тe
(°С)
Pmin
(гПа)
dP
(гПа)
Po
(мм)
O2
(г/м3)
Тmin Tmax R s Состояние
почвы
15 12.10.18 120 (ЮВ) 10 км    ясно 
+19.7 +8.2 47 +21  1029  -0.5  743  278           
18 12.10.18 130 (ЮВ) 10 км    ясно 
+13 +7.5 69 +13  1030.7  0.8  744  285    +21.3       
21 12.10.18 160 (Ю) 10 км    ясно 
+10 +7.9 87 +10  1031.5  0.4  744  288           
00 13.10.18 130 (ЮВ) 10 км    ясно 
+10.7 +9.1 90 +11  1031.3  -0.1  744  287           
03 13.10.18 140 (ЮВ) 10 км    ясно 
+9.9 +8.7 92 +10  1031.1  -0.3  744  288           
06 13.10.18 130 (ЮВ) 9000 м  дымка  ясно 
+9.2 +7.5 89 +10  1031.8  0.5  744  289  +6.8         
09 13.10.18 140 (ЮВ) 10 км    ясно 
+16.3 +10.7 69 +18  1030.6  -0.1  744  281           
12 13.10.18 150 (ЮВ) 10 км    ясно 
+19.5 +10.3 55 +22  1029.6  -0.6  744  278           
15 13.10.18 140 (ЮВ) 10 км    ясно 
+18 +11 64 +22  1029  -0.8  743  279           
18 13.10.18 130 (ЮВ) 9000 м  дым  ясно 
+11.3 +8.5 83 +12  1030.1  0.2  743  286    +20.4       
21 13.10.18 130 (ЮВ) 10 км    ясно 
+11.2 +5.1 66 +11  1030  -0.1  743  287           
00 14.10.18 130 (ЮВ) 10 км    ясно 
+10.7 +3.7 62 +10  1029.5  -0.6  743  287           
03 14.10.18 120 (ЮВ) 10 км    ясно 
+9.8 +2.6 61 +9  1028.5  -1.1  742  288           
06 14.10.18 150 (ЮВ) 10 км    3/0 верхняя 
[Ci fib]
+8.9 +3 66 +8  1029  0.4  742  289  +5.8         
09 14.10.18 140 (ЮВ) 10 км    ясно 
+15.8 +3.6 44 +15  1028.2  0.2  743  282           
12 14.10.18 150 (ЮВ) 10 км    ясно 
+19.7 +3 33 +20  1026.4  -1.2  742  278           
15 14.10.18 150 (ЮВ) 10 км    ясно 
+17.3 +2.9 38 +18  1026.3  -0.5  741  280           
18 14.10.18 130 (ЮВ) 10 км    ясно 
+13.4 +2 46 +13  1026.5  -0.3  741  284    +20.5       
21 14.10.18 140 (ЮВ) 10 км    ясно 
+9.6 +2.9 63 +9  1026.8  -0.3  741  288           
00 15.10.18 150 (ЮВ) 10 км    ясно 
+7.5 +3 73 +7  1027.4  0.3  741  290           
03 15.10.18 150 (ЮВ) 10 км    ясно 
+5.6 +2.7 82 +5  1027.3  -0.3  741  292           
06 15.10.18 160 (Ю) 10 км    3/0 верхняя 
[Ci fib]
+7.6 +4.7 82 +9  1027  741  290  +4.6         
09 15.10.18 120 (ЮВ) 10 км    3/0 верхняя 
[Ci fib]
+14.9 +5.2 52 +15  1026.3  0.3  741  282           
12 15.10.18 140 (ЮВ) 10 км    3/0 верхняя 
[Ci fib]
+18.8 +6.5 45 +19  1024.4  -1.3  740  278           
15 15.10.18 140 (ЮВ) 10 км    4/0 верхняя 
[Ci fib]
+17.8 +6 46 +19  1023.9  -0.6  740  279           
Время (UTC), дата Ветер
(°,м/с) 
Видим.   Явления Облачность Т
(°С)
Тd
(°С)
f(%) Тe
(°С)
Pmin
(гПа)
dP
(гПа)
Po
(мм)
O2
(г/м3)
Тmin Tmax R s Состояние
почвы

Для получения пояснительной информации подведите курсор к названию столбца.

ПОГОДА в Львове - архив

Всё, что Вы хотите узнать о погоде в Львове - удобно и подробно!

Выберите нужную дату (начиная с 1 января 2015* года) и нажмите кнопку "Найти".
Будут отображены архивные сводки погоды по пункту Львов, начиная с указанной даты.


Отображать данные в формате CSV (для использования в таблицах Excel)


Внимание! Наш архив погоды предназначен исключительно для личного некоммерческого использования в познавательных целях. Если Вам необходимы официальные справки о состоянии погоды (для производственных, юридических, коммерческих и т.п. целей), обращайтесь в органы Росгидромета.

*Примечание: данная дата относится к архиву по метеостанциям СССР (Россия, СНГ, Балтия).
Архив по метеостанциям Зарубежной Европы и Азии (кроме Китая) хранится 10 дней, по другим регионам земного шара (Китай, Африка, Америка, Австралия, Океания) - 1 день.

Львов - район местоположения метеостанции


Название, широта, долгота, высота метеостанции:
Львов 49.8°ш. 23.9°д. 323 м над ур. моря [Украина]

Дополнительная информация

В oтличие oт бoльшинства пoгoдных сайтoв мы публикуем пoдрoбную метеoинфoрмацию в детальнoм прoфессиoнальнoм фoрмате.

Характеристики температуры и влажнoсти вoздуха измеряются на высoте 2 м в тени вдали oт зданий и деревьев.
Скoрoсть ветра измеряется на высoте 10 м (на урoвне рoста челoвека скoрoсть ветра ниже в 1.5-2 раза). Если метеoстанция нахoдится в гoрoде или в лесу, тo скoрoсть ветра занижена на 2-4 м/с пo сравнению с oткрытым местoм. Скoрoсть ветра над акватoриями крупных рек и oзёр, а также на вершинах хoлмoв на 2-5 м/с выше, чем в oбычных услoвиях.
Атмoсфернoе давление в разных тoчках местнoсти мoжет значительнo oтличаться oт давления на метеoстанции, в зависимoсти oт услoвий рельефа (при пoдъёме на 10 м давление пoнижается примернo на 1 мм рт.ст.).